Flag for Cabo Verde Weather past 2 weeks in Santa Maria, Cabo Verde

Now
86 °F

Broken clouds.


Feels Like: 91 °F
Forecast: N/A
Wind: 9 mph from East

Location: Sal

Current Time: Aug 27, 2014 at 2:13:33 PM

Latest Report: Aug 27, 2014 at 2:00 PM


Visibility: N/A

Pressure: 29.95 "Hg

Humidity: 59%

Dew point: 70 °F

Location of Santa MariaLocation

Historic Weather in Santa Maria — Graph

°F

Santa Maria temperature yesterday

Maximum temperature yesterday: 88 °F (at 12:00 PM)
Minimum temperature yesterday: 75 °F (at 3:00 AM)
Average temperature yesterday: 80 °F

Past Weeks' High & Low Weather Summary

 TemperatureHumidityPressure
High90 °F (Aug 27, 1:00 PM)94% (Aug 21, 8:00 AM)30.01 "Hg (Aug 21, 8:00 AM)
Low72 °F (Aug 20, 6:00 AM)52% (Aug 27, 1:00 PM)29.83 "Hg (Aug 13, 3:00 PM)
Average79 °F75%29.93 "Hg
* Reported Aug 12 1:00 PM — Aug 27 1:00 PM, Santa Maria, Weather by CustomWeather, © 2014

Note: Actual official high and low records may vary slightly from our data, if they occured in-between our weather recording intervals... More about our weather records

Advertising

Santa Maria weather history for previous 24 hours

 ConditionsComfort  
Time TempWeatherWind HumidityBarometerVisibility
1:00 PM
Aug 27
90 °FScattered clouds.3 mph52%29.95 "HgN/A
12:00 PM88 °FPartly sunny.8 mph55%29.98 "HgN/A
11:00 AM84 °FPartly sunny.7 mph62%29.98 "HgN/A
10:00 AM82 °FBroken clouds.6 mph70%29.98 "HgN/A
9:00 AM79 °FMostly cloudy.8 mph74%29.95 "HgN/A
8:00 AM79 °FOvercast.9 mph74%29.95 "HgN/A
7:00 AM77 °FPartly sunny.7 mph79%29.95 "HgN/A
6:00 AM77 °FPartly sunny.7 mph79%29.92 "HgN/A
5:00 AM77 °FPartly sunny.7 mph79%29.92 "HgN/A
4:00 AM75 °FPassing clouds.7 mph83%29.89 "HgN/A
3:00 AM75 °FPassing clouds.7 mph83%29.92 "HgN/A
2:00 AM77 °FPassing clouds.7 mph79%29.92 "HgN/A
1:00 AM77 °FPassing clouds.7 mph79%29.95 "HgN/A
12:00 AM77 °FPassing clouds.9 mph79%29.98 "HgN/A
11:00 PM
Aug 26
77 °FPassing clouds.10 mph79%29.98 "HgN/A
10:00 PM77 °FPassing clouds.9 mph79%29.98 "HgN/A
9:00 PM77 °FPassing clouds.9 mph79%29.95 "HgN/A
8:00 PM79 °FPassing clouds.10 mph74%29.95 "HgN/A
7:00 PM79 °FPassing clouds.10 mph70%29.92 "HgN/A
6:00 PM81 °FPassing clouds.9 mph66%29.92 "HgN/A
5:00 PM82 °FPassing clouds.12 mph66%29.92 "HgN/A
4:00 PM84 °FPartly sunny.9 mph58%29.92 "HgN/A
3:00 PM84 °FPartly sunny.10 mph58%29.95 "HgN/A
2:00 PM86 °FPartly sunny.12 mph55%29.95 "HgN/A
Weather by CustomWeather, © 2014

See weather overviewHow to use our weather pages